| time (UTC) | temp F | wind direction | speed MPH | gust MPH | rain 1hr in | rain 24hr in | rain mn in | humidity % | barometer mb |
| 20260831131816 | 75 | 25 | 1.0 | 4.0 | 0.00 | 0.22 | 0.00 | 92 | 1021.6 |
| 20260831131511 | 75 | 355 | 1.0 | 4.0 | 0.00 | 0.22 | 0.00 | 92 | 1020.8 |
| 20260831131008 | 75 | 76 | 0.0 | 4.0 | 0.00 | 0.22 | 0.00 | 92 | 1020.9 |
| 20260831130506 | 74 | 79 | 2.0 | 5.0 | 0.00 | 0.22 | 0.00 | 92 | 1020.8 |
| 20260831130325 | 75 | 79 | 2.0 | 5.0 | 0.00 | 0.22 | 0.00 | 92 | 1021.7 |
| 20260831130002 | 75 | 103 | 1.0 | 5.0 | 0.00 | 0.22 | 0.00 | 92 | 1020.9 |
| 20260831125559 | 75 | 53 | 1.0 | 4.0 | 0.00 | 0.22 | 0.00 | 92 | 1020.9 |
| 20260831125502 | 75 | 56 | 0.0 | 2.0 | 0.00 | 0.22 | 0.00 | 92 | 1020.9 |
| 20260831125053 | 75 | 44 | 0.0 | 3.0 | 0.00 | 0.22 | 0.00 | 92 | 1020.7 |
| 20260831124850 | 75 | 96 | 0.0 | 3.0 | 0.00 | 0.22 | 0.00 | 92 | 1021.6 |
| 20260831124529 | 74 | 33 | 0.0 | 4.0 | 0.00 | 0.22 | 0.00 | 92 | 1020.7 |
| 20260831124032 | 74 | 62 | 1.0 | 4.0 | 0.00 | 0.22 | 0.00 | 92 | 1020.7 |
| 20260831123522 | 74 | 81 | 1.0 | 4.0 | 0.00 | 0.22 | 0.00 | 92 | 1020.6 |
| 20260831123317 | 74 | 53 | 2.0 | 4.0 | 0.00 | 0.22 | 0.00 | 92 | 1021.4 |
| 20260831123017 | 74 | 76 | 1.0 | 3.0 | 0.00 | 0.22 | 0.00 | 92 | 1020.5 |
| 20260831122516 | 74 | 79 | 1.0 | 4.0 | 0.00 | 0.22 | 0.00 | 92 | 1020.4 |
| 20260831122022 | 74 | 34 | 1.0 | 4.0 | 0.00 | 0.22 | 0.00 | 92 | 1020.4 |
| 20260831121817 | 74 | 28 | 2.0 | 4.0 | 0.00 | 0.22 | 0.00 | 92 | 1021.2 |
| 20260831121531 | 74 | 348 | 1.0 | 4.0 | 0.00 | 0.22 | 0.00 | 92 | 1020.3 |
| 20260831121038 | 74 | 61 | 1.0 | 3.0 | 0.00 | 0.22 | 0.00 | 92 | 1020.3 |
| 20260831120540 | 74 | 51 | 0.0 | 2.0 | 0.00 | 0.22 | 0.00 | 92 | 1020.3 |
| 20260831120319 | 74 | 77 | 0.0 | 2.0 | 0.00 | 0.22 | 0.00 | 92 | 1021.1 |
| 20260831120040 | 73 | 66 | 0.0 | 4.0 | 0.00 | 0.22 | 0.00 | 92 | 1020.3 |
| 20260831115542 | 73 | 80 | 2.0 | 4.0 | 0.00 | 0.22 | 0.00 | 92 | 1020.3 |
| 20260831115048 | 73 | 49 | 0.0 | 2.0 | 0.00 | 0.22 | 0.00 | 92 | 1020.3 |
| 20260831114818 | 74 | 35 | 0.0 | 2.0 | 0.00 | 0.22 | 0.00 | 92 | 1021.1 |
| 20260831114550 | 73 | 5 | 0.0 | 2.0 | 0.00 | 0.22 | 0.00 | 92 | 1020.3 |
| 20260831114056 | 73 | 57 | 1.0 | 4.0 | 0.00 | 0.22 | 0.00 | 92 | 1020.1 |
| 20260831113559 | 73 | 65 | 2.0 | 4.0 | 0.00 | 0.22 | 0.00 | 92 | 1020.1 |
| 20260831113319 | 73 | 28 | 1.0 | 3.0 | 0.00 | 0.22 | 0.00 | 92 | 1020.9 |
| 20260831113058 | 73 | 43 | 0.0 | 3.0 | 0.00 | 0.22 | 0.00 | 92 | 1020.1 |
| 20260831113001 | 73 | 17 | 0.0 | 3.0 | 0.00 | 0.22 | 0.00 | 92 | 1020.0 |
| 20260831112603 | 73 | 338 | 1.0 | 4.0 | 0.00 | 0.22 | 0.00 | 92 | 1020.0 |
| 20260831112503 | 73 | 17 | 1.0 | 4.0 | 0.00 | 0.22 | 0.00 | 92 | 1020.0 |
| 20260831112004 | 73 | 17 | 1.0 | 4.0 | 0.00 | 0.22 | 0.00 | 92 | 1020.0 |
| 20260831111818 | 73 | 53 | 1.0 | 4.0 | 0.00 | 0.22 | 0.00 | 92 | 1020.8 |
| 20260831111505 | 73 | 15 | 0.0 | 3.0 | 0.00 | 0.22 | 0.00 | 92 | 1020.1 |
| 20260831111010 | 73 | 28 | 0.0 | 3.0 | 0.00 | 0.22 | 0.00 | 92 | 1020.1 |
| 20260831110509 | 73 | 345 | 0.0 | 3.0 | 0.00 | 0.22 | 0.00 | 92 | 1020.0 |
| 20260831110320 | 73 | 355 | 1.0 | 2.0 | 0.00 | 0.22 | 0.00 | 92 | 1020.8 |
| 20260831110100 | 73 | 355 | 0.0 | 2.0 | 0.00 | 0.22 | 0.00 | 92 | 1020.0 |
| 20260831110002 | 73 | 355 | 0.0 | 2.0 | 0.00 | 0.22 | 0.00 | 92 | 1020.0 |
| 20260831105559 | 73 | 355 | 1.0 | 3.0 | 0.00 | 0.22 | 0.00 | 92 | 1019.9 |
| 20260831105056 | 73 | 355 | 0.0 | 3.0 | 0.00 | 0.22 | 0.00 | 92 | 1019.9 |
| 20260831104819 | 73 | 360 | 1.0 | 2.0 | 0.00 | 0.22 | 0.00 | 92 | 1020.7 |
| 20260831104558 | 72 | 21 | 0.0 | 2.0 | 0.00 | 0.22 | 0.00 | 92 | 1020.0 |
| 20260831104050 | 72 | 63 | 0.0 | 2.0 | 0.00 | 0.22 | 0.00 | 92 | 1019.9 |
| 20260831103549 | 72 | 63 | 0.0 | 3.0 | 0.00 | 0.22 | 0.00 | 92 | 1019.9 |
| 20260831103322 | 73 | 41 | 1.0 | 3.0 | 0.00 | 0.22 | 0.00 | 92 | 1020.7 |
| 20260831103048 | 72 | 26 | 0.0 | 3.0 | 0.00 | 0.22 | 0.00 | 92 | 1019.9 |
| 20260831102549 | 72 | 9 | 0.0 | 2.0 | 0.00 | 0.22 | 0.00 | 92 | 1019.8 |
| 20260831102050 | 72 | 18 | 0.0 | 3.0 | 0.00 | 0.22 | 0.00 | 92 | 1019.7 |
| 20260831101822 | 73 | 18 | 1.0 | 4.0 | 0.00 | 0.22 | 0.00 | 92 | 1020.5 |
| 20260831101550 | 72 | 40 | 1.0 | 4.0 | 0.00 | 0.22 | 0.00 | 92 | 1019.6 |
| 20260831101052 | 73 | 40 | 1.0 | 4.0 | 0.00 | 0.22 | 0.00 | 92 | 1019.6 |
| 20260831100555 | 72 | 17 | 1.0 | 4.0 | 0.00 | 0.22 | 0.00 | 92 | 1019.5 |
| 20260831100324 | 73 | 23 | 1.0 | 4.0 | 0.00 | 0.22 | 0.00 | 92 | 1020.2 |
| 20260831100104 | 72 | 85 | 2.0 | 4.0 | 0.00 | 0.22 | 0.00 | 92 | 1019.4 |
| 20260831100003 | 73 | 44 | 1.0 | 4.0 | 0.00 | 0.22 | 0.00 | 92 | 1019.3 |
| 20260831095508 | 73 | 45 | 1.0 | 4.0 | 0.00 | 0.22 | 0.00 | 92 | 1019.2 |
| 20260831095014 | 73 | 33 | 1.0 | 4.0 | 0.00 | 0.22 | 0.00 | 92 | 1019.4 |
| 20260831094823 | 73 | 43 | 2.0 | 4.0 | 0.00 | 0.22 | 0.00 | 92 | 1020.2 |
| 20260831094518 | 73 | 47 | 1.0 | 3.0 | 0.00 | 0.22 | 0.00 | 92 | 1019.3 |
| 20260831094024 | 73 | 73 | 0.0 | 2.0 | 0.00 | 0.22 | 0.00 | 92 | 1019.4 |
| 20260831093526 | 73 | 75 | 0.0 | 4.0 | 0.00 | 0.22 | 0.00 | 92 | 1019.2 |
| 20260831093343 | 73 | 51 | 0.0 | 4.0 | 0.00 | 0.22 | 0.00 | 92 | 1020.1 |
| 20260831093100 | 73 | 56 | 1.0 | 4.0 | 0.00 | 0.22 | 0.00 | 92 | 1019.2 |
| 20260831093010 | 72 | 51 | 1.0 | 4.0 | 0.00 | 0.22 | 0.00 | 92 | 1019.2 |
| 20260831092513 | 72 | 54 | 0.0 | 3.0 | 0.00 | 0.22 | 0.00 | 92 | 1019.3 |
| 20260831092012 | 72 | 36 | 0.0 | 3.0 | 0.00 | 0.22 | 0.00 | 92 | 1019.2 |
| 20260831091824 | 73 | 37 | 1.0 | 3.0 | 0.00 | 0.22 | 0.00 | 92 | 1020.1 |
| 20260831091514 | 72 | 23 | 1.0 | 4.0 | 0.00 | 0.22 | 0.00 | 92 | 1019.2 |
| 20260831091018 | 72 | 25 | 1.0 | 4.0 | 0.00 | 0.22 | 0.00 | 92 | 1019.3 |
| 20260831090522 | 72 | 45 | 1.0 | 4.0 | 0.00 | 0.22 | 0.00 | 92 | 1019.3 |
| 20260831090348 | 73 | 40 | 1.0 | 4.0 | 0.00 | 0.22 | 0.00 | 92 | 1020.2 |
| 20260831090006 | 72 | 49 | 1.0 | 4.0 | 0.00 | 0.22 | 0.00 | 92 | 1019.3 |
| 20260831085512 | 73 | 9 | 1.0 | 4.0 | 0.00 | 0.22 | 0.00 | 92 | 1019.3 |
| 20260831085016 | 73 | 45 | 1.0 | 4.0 | 0.00 | 0.22 | 0.00 | 92 | 1019.1 |
| 20260831084814 | 73 | 31 | 1.0 | 3.0 | 0.00 | 0.22 | 0.00 | 92 | 1019.9 |
| 20260831084516 | 73 | 79 | 1.0 | 3.0 | 0.00 | 0.22 | 0.00 | 92 | 1019.1 |
| 20260831084011 | 73 | 68 | 0.0 | 3.0 | 0.00 | 0.22 | 0.00 | 92 | 1019.0 |
| 20260831083512 | 73 | 86 | 0.0 | 2.0 | 0.00 | 0.22 | 0.00 | 92 | 1019.0 |
| 20260831083322 | 73 | 83 | 0.0 | 2.0 | 0.00 | 0.22 | 0.00 | 91 | 1019.7 |
| 20260831083010 | 73 | 80 | 0.0 | 3.0 | 0.00 | 0.22 | 0.00 | 91 | 1018.9 |
| 20260831082511 | 73 | 87 | 1.0 | 3.0 | 0.00 | 0.22 | 0.00 | 91 | 1018.9 |
| 20260831082008 | 73 | 76 | 0.0 | 2.0 | 0.00 | 0.22 | 0.00 | 91 | 1018.9 |
| 20260831081847 | 73 | 115 | 1.0 | 3.0 | 0.00 | 0.22 | 0.00 | 91 | 1019.7 |
| 20260831081543 | 73 | 104 | 0.0 | 3.0 | 0.00 | 0.22 | 0.00 | 91 | 1018.9 |
| 20260831081044 | 73 | 111 | 1.0 | 3.0 | 0.00 | 0.22 | 0.00 | 91 | 1019.0 |
| 20260831080549 | 73 | 70 | 0.0 | 2.0 | 0.00 | 0.22 | 0.00 | 91 | 1019.1 |
| 20260831080317 | 73 | 70 | 1.0 | 2.0 | 0.00 | 0.22 | 0.00 | 91 | 1019.8 |
| 20260831080054 | 73 | 79 | 0.0 | 2.0 | 0.00 | 0.22 | 0.00 | 91 | 1019.0 |
| 20260831075557 | 73 | 34 | 0.0 | 3.0 | 0.00 | 0.22 | 0.00 | 91 | 1019.2 |
| 20260831075502 | 73 | 34 | 0.0 | 3.0 | 0.00 | 0.22 | 0.00 | 91 | 1019.2 |
| 20260831075008 | 73 | 46 | 0.0 | 3.0 | 0.00 | 0.22 | 0.00 | 91 | 1019.3 |
| 20260831074825 | 73 | 74 | 1.0 | 3.0 | 0.00 | 0.22 | 0.00 | 91 | 1020.1 |
| 20260831074510 | 73 | 87 | 0.0 | 0.0 | 0.00 | 0.22 | 0.00 | 91 | 1019.3 |
| 20260831074014 | 73 | 61 | 0.0 | 0.0 | 0.00 | 0.22 | 0.00 | 91 | 1019.3 |
| 20260831073511 | 73 | 53 | 0.0 | 0.0 | 0.00 | 0.22 | 0.00 | 91 | 1019.2 |
| 20260831073316 | 73 | 61 | 0.0 | 0.0 | 0.00 | 0.22 | 0.00 | 91 | 1020.1 |
| 20260831073007 | 73 | 86 | 0.0 | 0.0 | 0.00 | 0.22 | 0.00 | 91 | 1019.2 |
| 20260831072600 | 73 | 38 | 0.0 | 0.0 | 0.00 | 0.22 | 0.00 | 91 | 1019.1 |
| 20260831072502 | 73 | 38 | 0.0 | 0.0 | 0.00 | 0.22 | 0.00 | 91 | 1019.3 |
| 20260831072058 | 73 | 37 | 0.0 | 2.0 | 0.00 | 0.22 | 0.00 | 91 | 1019.2 |
| 20260831071823 | 73 | 42 | 0.0 | 2.0 | 0.00 | 0.22 | 0.00 | 91 | 1020.2 |
| 20260831071556 | 73 | 51 | 0.0 | 2.0 | 0.00 | 0.22 | 0.00 | 91 | 1019.4 |
| 20260831071052 | 73 | 51 | 0.0 | 2.0 | 0.00 | 0.22 | 0.00 | 91 | 1019.4 |
| 20260831070553 | 73 | 33 | 0.0 | 3.0 | 0.00 | 0.22 | 0.00 | 91 | 1019.5 |
| 20260831070329 | 73 | 43 | 1.0 | 3.0 | 0.00 | 0.22 | 0.00 | 91 | 1020.3 |
| 20260831070047 | 73 | 55 | 0.0 | 3.0 | 0.00 | 0.22 | 0.00 | 91 | 1019.4 |
| 20260831065537 | 73 | 56 | 0.0 | 1.0 | 0.00 | 0.22 | 0.00 | 91 | 1019.4 |
| 20260831065041 | 73 | 55 | 0.0 | 1.0 | 0.00 | 0.22 | 0.00 | 91 | 1019.5 |
| 20260831064814 | 73 | 55 | 0.0 | 1.0 | 0.00 | 0.22 | 0.00 | 91 | 1020.3 |
| 20260831064541 | 73 | 55 | 0.0 | 1.0 | 0.00 | 0.22 | 0.00 | 91 | 1019.5 |
| 20260831064039 | 73 | 55 | 0.0 | 1.0 | 0.00 | 0.22 | 0.00 | 90 | 1019.5 |
| 20260831063536 | 73 | 55 | 0.0 | 1.0 | 0.00 | 0.22 | 0.00 | 90 | 1019.4 |
| 20260831063314 | 73 | 55 | 0.0 | 1.0 | 0.00 | 0.22 | 0.00 | 90 | 1020.2 |
| 20260831063032 | 73 | 55 | 0.0 | 1.0 | 0.00 | 0.22 | 0.00 | 90 | 1019.2 |
| 20260831062530 | 73 | 55 | 0.0 | 1.0 | 0.00 | 0.22 | 0.00 | 90 | 1019.2 |
| 20260831062026 | 73 | 55 | 0.0 | 1.0 | 0.00 | 0.22 | 0.00 | 90 | 1019.3 |
| 20260831061813 | 74 | 55 | 0.0 | 1.0 | 0.00 | 0.22 | 0.00 | 90 | 1020.1 |
| 20260831061518 | 73 | 55 | 0.0 | 0.0 | 0.00 | 0.22 | 0.00 | 90 | 1019.3 |
| 20260831061013 | 73 | 55 | 0.0 | 2.0 | 0.00 | 0.22 | 0.00 | 90 | 1019.3 |
| 20260831060511 | 73 | 55 | 0.0 | 2.0 | 0.00 | 0.22 | 0.00 | 90 | 1019.4 |
| 20260831060314 | 74 | 59 | 1.0 | 2.0 | 0.00 | 0.22 | 0.00 | 90 | 1020.2 |
| 20260831060006 | 73 | 58 | 0.0 | 2.0 | 0.00 | 0.22 | 0.00 | 90 | 1019.3 |
| 20260831055505 | 74 | 38 | 0.0 | 1.0 | 0.00 | 0.22 | 0.00 | 89 | 1019.4 |
| 20260831055101 | 74 | 38 | 0.0 | 2.0 | 0.00 | 0.22 | 0.00 | 89 | 1019.3 |
| 20260831055003 | 74 | 38 | 0.0 | 2.0 | 0.00 | 0.22 | 0.00 | 89 | 1019.2 |
| 20260831054813 | 74 | 38 | 0.0 | 2.0 | 0.00 | 0.22 | 0.00 | 89 | 1020.1 |
| 20260831054557 | 74 | 38 | 0.0 | 2.0 | 0.00 | 0.22 | 0.00 | 89 | 1019.3 |
| 20260831054052 | 74 | 62 | 0.0 | 3.0 | 0.00 | 0.22 | 0.00 | 89 | 1019.3 |
| 20260831053553 | 74 | 71 | 0.0 | 3.0 | 0.00 | 0.22 | 0.00 | 89 | 1019.5 |
| 20260831053314 | 74 | 34 | 1.0 | 3.0 | 0.00 | 0.22 | 0.00 | 89 | 1020.2 |
| 20260831053046 | 74 | 38 | 0.0 | 3.0 | 0.00 | 0.22 | 0.00 | 89 | 1019.4 |
| 20260831052544 | 74 | 71 | 0.0 | 3.0 | 0.00 | 0.22 | 0.00 | 89 | 1019.3 |
| 20260831052041 | 74 | 70 | 0.0 | 2.0 | 0.00 | 0.22 | 0.00 | 89 | 1019.2 |
| 20260831051813 | 74 | 76 | 0.0 | 3.0 | 0.00 | 0.22 | 0.00 | 88 | 1020.1 |
| 20260831051539 | 74 | 62 | 0.0 | 3.0 | 0.00 | 0.22 | 0.00 | 88 | 1019.2 |
| 20260831051035 | 74 | 38 | 0.0 | 3.0 | 0.00 | 0.22 | 0.00 | 88 | 1019.3 |
| 20260831050538 | 74 | 67 | 0.0 | 4.0 | 0.00 | 0.22 | 0.00 | 88 | 1019.4 |
| 20260831050315 | 74 | 89 | 0.0 | 4.0 | 0.00 | 0.22 | 0.00 | 88 | 1020.1 |
| 20260831050030 | 74 | 89 | 1.0 | 4.0 | 0.00 | 0.22 | 0.00 | 88 | 1019.3 |
| 20260831045526 | 74 | 69 | 0.0 | 3.0 | 0.00 | 0.22 | 0.00 | 88 | 1019.3 |
| 20260831045022 | 74 | 76 | 0.0 | 3.0 | 0.00 | 0.22 | 0.00 | 88 | 1019.2 |
| 20260831044815 | 74 | 53 | 0.0 | 3.0 | 0.00 | 0.22 | 0.00 | 88 | 1020.1 |
| 20260831044518 | 74 | 96 | 0.0 | 3.0 | 0.00 | 0.22 | 0.00 | 88 | 1019.2 |
| 20260831044019 | 74 | 107 | 0.0 | 3.0 | 0.00 | 0.22 | 0.00 | 88 | 1019.2 |
| 20260831043513 | 74 | 107 | 1.0 | 3.0 | 0.00 | 0.22 | 0.00 | 87 | 1019.3 |
| 20260831043316 | 75 | 44 | 1.0 | 3.0 | 0.00 | 0.22 | 0.00 | 87 | 1020.1 |
| 20260831043009 | 74 | 77 | 0.0 | 3.0 | 0.00 | 0.22 | 0.00 | 87 | 1019.3 |
| 20260831042508 | 74 | 90 | 0.0 | 3.0 | 0.00 | 0.22 | 0.00 | 87 | 1019.4 |
| 20260831042006 | 74 | 86 | 0.0 | 3.0 | 0.00 | 0.22 | 0.00 | 87 | 1019.3 |
| 20260831041816 | 75 | 78 | 1.0 | 3.0 | 0.00 | 0.22 | 0.00 | 87 | 1020.1 |
| 20260831041603 | 74 | 75 | 0.0 | 3.0 | 0.00 | 0.22 | 0.00 | 87 | 1019.3 |
| 20260831041502 | 74 | 94 | 0.0 | 3.0 | 0.00 | 0.22 | 0.00 | 87 | 1019.3 |
| 20260831041056 | 74 | 105 | 0.0 | 3.0 | 0.00 | 0.22 | 0.00 | 87 | 1019.4 |
| 20260831040554 | 74 | 138 | 1.0 | 3.0 | 0.00 | 0.22 | 0.00 | 87 | 1019.5 |
| 20260831040314 | 75 | 98 | 1.0 | 3.0 | 0.00 | 0.22 | 0.00 | 86 | 1020.3 |
| 20260831040050 | 74 | 105 | 0.0 | 3.0 | 0.00 | 0.22 | 0.22 | 86 | 1019.6 |
| 20260831035551 | 74 | 79 | 0.0 | 3.0 | 0.00 | 0.22 | 0.22 | 86 | 1019.7 |
| 20260831035055 | 74 | 119 | 0.0 | 3.0 | 0.00 | 0.22 | 0.22 | 86 | 1019.7 |
| 20260831035005 | 74 | 106 | 0.0 | 3.0 | 0.00 | 0.22 | 0.22 | 86 | 1019.7 |
| 20260831034854 | 75 | 141 | 0.0 | 3.0 | 0.00 | 0.22 | 0.22 | 86 | 1020.5 |
| 20260831034541 | 74 | 109 | 0.0 | 3.0 | 0.00 | 0.22 | 0.22 | 86 | 1019.6 |
| 20260831034043 | 74 | 115 | 0.0 | 2.0 | 0.00 | 0.22 | 0.22 | 86 | 1019.7 |
| 20260831033550 | 74 | 92 | 0.0 | 2.0 | 0.00 | 0.22 | 0.22 | 86 | 1019.7 |
| 20260831033314 | 75 | 82 | 0.0 | 1.0 | 0.00 | 0.22 | 0.22 | 86 | 1020.6 |
| 20260831033056 | 75 | 82 | 0.0 | 1.0 | 0.00 | 0.22 | 0.22 | 86 | 1019.7 |
| 20260831032559 | 75 | 82 | 0.0 | 2.0 | 0.00 | 0.22 | 0.22 | 86 | 1019.8 |
| 20260831032504 | 75 | 67 | 0.0 | 2.0 | 0.00 | 0.22 | 0.22 | 86 | 1019.8 |
| 20260831032009 | 75 | 84 | 0.0 | 2.0 | 0.00 | 0.22 | 0.22 | 85 | 1019.8 |
| 20260831031814 | 75 | 44 | 0.0 | 2.0 | 0.00 | 0.22 | 0.22 | 85 | 1020.6 |
| 20260831031520 | 75 | 44 | 0.0 | 2.0 | 0.00 | 0.22 | 0.22 | 85 | 1019.9 |
| 20260831031027 | 75 | 65 | 0.0 | 2.0 | 0.00 | 0.22 | 0.22 | 85 | 1019.8 |
| 20260831030527 | 75 | 61 | 0.0 | 1.0 | 0.00 | 0.22 | 0.22 | 85 | 1019.9 |
| 20260831030336 | 76 | 61 | 0.0 | 1.0 | 0.00 | 0.22 | 0.22 | 84 | 1020.8 |
| 20260831030012 | 75 | 38 | 0.0 | 2.0 | 0.00 | 0.22 | 0.22 | 85 | 1019.9 |
| 20260831025517 | 75 | 68 | 0.0 | 3.0 | 0.00 | 0.22 | 0.22 | 84 | 1020.0 |
| 20260831025030 | 75 | 87 | 0.0 | 3.0 | 0.00 | 0.22 | 0.22 | 84 | 1020.1 |
| 20260831024814 | 76 | 87 | 1.0 | 3.0 | 0.00 | 0.22 | 0.22 | 84 | 1020.8 |
| 20260831024530 | 75 | 67 | 0.0 | 3.0 | 0.00 | 0.22 | 0.22 | 83 | 1020.0 |
| 20260831024036 | 75 | 102 | 1.0 | 3.0 | 0.00 | 0.22 | 0.22 | 83 | 1019.9 |
| 20260831023543 | 75 | 103 | 0.0 | 3.0 | 0.00 | 0.22 | 0.22 | 83 | 1020.0 |
| 20260831023316 | 76 | 77 | 0.0 | 3.0 | 0.00 | 0.22 | 0.22 | 83 | 1020.8 |
| 20260831023045 | 76 | 107 | 0.0 | 3.0 | 0.00 | 0.22 | 0.22 | 83 | 1020.0 |
| 20260831022551 | 76 | 111 | 0.0 | 2.0 | 0.00 | 0.22 | 0.22 | 83 | 1020.0 |
| 20260831022057 | 76 | 62 | 0.0 | 2.0 | 0.00 | 0.22 | 0.22 | 83 | 1020.1 |
| 20260831022002 | 76 | 49 | 0.0 | 2.0 | 0.00 | 0.22 | 0.22 | 83 | 1020.0 |
| 20260831021815 | 76 | 40 | 0.0 | 1.0 | 0.00 | 0.22 | 0.22 | 83 | 1020.8 |
| 20260831021510 | 76 | 86 | 0.0 | 1.0 | 0.00 | 0.22 | 0.22 | 82 | 1020.0 |
| 20260831021010 | 76 | 42 | 0.0 | 1.0 | 0.00 | 0.22 | 0.22 | 82 | 1020.1 |
| 20260831020512 | 76 | 42 | 0.0 | 2.0 | 0.00 | 0.22 | 0.22 | 82 | 1020.1 |
| 20260831020317 | 77 | 42 | 0.0 | 2.0 | 0.00 | 0.22 | 0.22 | 82 | 1020.8 |
| 20260831020016 | 76 | 42 | 0.0 | 2.0 | 0.00 | 0.22 | 0.22 | 82 | 1020.0 |
| 20260831015519 | 76 | 96 | 0.0 | 3.0 | 0.00 | 0.22 | 0.22 | 81 | 1019.9 |
| 20260831015026 | 76 | 129 | 0.0 | 6.0 | 0.00 | 0.22 | 0.22 | 81 | 1019.7 |
| 20260831014836 | 77 | 117 | 1.0 | 6.0 | 0.00 | 0.22 | 0.22 | 81 | 1020.6 |
| 20260831014507 | 76 | 129 | 2.0 | 6.0 | 0.00 | 0.22 | 0.22 | 81 | 1019.8 |
| 20260831014013 | 77 | 88 | 0.0 | 2.0 | 0.00 | 0.22 | 0.22 | 81 | 1019.9 |
| 20260831013522 | 77 | 65 | 0.0 | 4.0 | 0.00 | 0.22 | 0.22 | 81 | 1019.9 |
| 20260831013316 | 77 | 64 | 0.0 | 4.0 | 0.00 | 0.22 | 0.22 | 80 | 1020.7 |
| 20260831013030 | 77 | 84 | 1.0 | 4.0 | 0.00 | 0.22 | 0.22 | 80 | 1019.9 |
| 20260831012532 | 77 | 27 | 0.0 | 4.0 | 0.00 | 0.22 | 0.22 | 80 | 1019.9 |
| 20260831012038 | 77 | 96 | 1.0 | 4.0 | 0.00 | 0.22 | 0.22 | 80 | 1019.8 |
| 20260831011815 | 78 | 113 | 2.0 | 4.0 | 0.00 | 0.22 | 0.22 | 80 | 1020.6 |
| 20260831011545 | 77 | 106 | 1.0 | 4.0 | 0.00 | 0.22 | 0.22 | 80 | 1019.7 |
| 20260831011049 | 77 | 89 | 0.0 | 3.0 | 0.00 | 0.22 | 0.22 | 80 | 1019.7 |
| 20260831010553 | 77 | 44 | 0.0 | 3.0 | 0.00 | 0.22 | 0.22 | 80 | 1019.6 |
| 20260831010317 | 78 | 63 | 0.0 | 3.0 | 0.00 | 0.22 | 0.22 | 79 | 1020.4 |
| 20260831010057 | 78 | 153 | 1.0 | 4.0 | 0.00 | 0.22 | 0.22 | 79 | 1019.5 |
| 20260831010002 | 78 | 105 | 1.0 | 4.0 | 0.00 | 0.22 | 0.22 | 79 | 1019.5 |
| 20260831005505 | 78 | 113 | 2.0 | 4.0 | 0.00 | 0.22 | 0.22 | 79 | 1019.4 |
| 20260831005013 | 78 | 100 | 0.0 | 4.0 | 0.00 | 0.22 | 0.22 | 78 | 1019.5 |
| 20260831004816 | 78 | 23 | 1.0 | 4.0 | 0.00 | 0.22 | 0.22 | 78 | 1020.3 |
| 20260831004515 | 78 | 62 | 1.0 | 4.0 | 0.00 | 0.22 | 0.22 | 78 | 1019.5 |
| 20260831004022 | 78 | 77 | 1.0 | 4.0 | 0.00 | 0.22 | 0.22 | 78 | 1019.4 |
| 20260831003532 | 79 | 71 | 0.0 | 4.0 | 0.00 | 0.22 | 0.22 | 78 | 1019.5 |
| 20260831003318 | 79 | 104 | 1.0 | 4.0 | 0.00 | 0.22 | 0.22 | 78 | 1020.3 |
| 20260831003035 | 79 | 115 | 1.0 | 4.0 | 0.00 | 0.22 | 0.22 | 78 | 1019.4 |
| 20260831002536 | 79 | 86 | 0.0 | 6.0 | 0.00 | 0.22 | 0.22 | 77 | 1019.5 |
| 20260831002029 | 79 | 45 | 1.0 | 7.0 | 0.00 | 0.22 | 0.22 | 76 | 1019.5 |
| 20260831001841 | 80 | 115 | 3.0 | 7.0 | 0.00 | 0.22 | 0.22 | 76 | 1020.3 |
| 20260831001505 | 80 | 184 | 3.0 | 7.0 | 0.00 | 0.22 | 0.22 | 76 | 1019.3 |
| 20260831001004 | 80 | 126 | 3.0 | 10.0 | 0.00 | 0.22 | 0.22 | 75 | 1019.4 |
| 20260831000558 | 80 | 147 | 2.0 | 10.0 | 0.00 | 0.22 | 0.22 | 75 | 1019.5 |
| 20260831000329 | 81 | 108 | 5.0 | 11.0 | 0.00 | 0.22 | 0.22 | 74 | 1020.5 |
| 20260831000052 | 81 | 139 | 3.0 | 11.0 | 0.00 | 0.22 | 0.22 | 74 | 1019.7 |
| 20260830235551 | 82 | 89 | 5.0 | 11.0 | 0.00 | 0.22 | 0.22 | 75 | 1019.7 |
| 20260830235045 | 82 | 44 | 4.0 | 10.0 | 0.00 | 0.22 | 0.22 | 76 | 1019.5 |
| 20260830234813 | 83 | 114 | 5.0 | 10.0 | 0.00 | 0.22 | 0.22 | 76 | 1020.3 |
| 20260830234555 | 83 | 133 | 3.0 | 10.0 | 0.00 | 0.22 | 0.22 | 76 | 1019.2 |
| 20260830234037 | 83 | 101 | 3.0 | 15.0 | 0.00 | 0.22 | 0.22 | 76 | 1019.1 |
| 20260830233539 | 83 | 122 | 5.0 | 15.0 | 0.00 | 0.22 | 0.22 | 77 | 1019.0 |
| 20260830233320 | 84 | 107 | 1.0 | 6.0 | 0.00 | 0.22 | 0.22 | 78 | 1019.7 |
| 20260830233025 | 83 | 150 | 0.0 | 2.0 | 0.00 | 0.22 | 0.22 | 78 | 1018.8 |
| 20260830232522 | 83 | 71 | 0.0 | 2.0 | 0.00 | 0.22 | 0.22 | 78 | 1018.7 |
| 20260830232023 | 83 | 70 | 0.0 | 2.0 | 0.00 | 0.22 | 0.22 | 78 | 1018.5 |
| 20260830231825 | 84 | 59 | 0.0 | 2.0 | 0.00 | 0.22 | 0.22 | 78 | 1019.3 |
| 20260830231515 | 83 | 98 | 0.0 | 3.0 | 0.00 | 0.22 | 0.22 | 78 | 1018.6 |
| 20260830231011 | 83 | 91 | 1.0 | 3.0 | 0.00 | 0.22 | 0.22 | 77 | 1018.6 |
| 20260830230509 | 83 | 42 | 0.0 | 5.0 | 0.00 | 0.22 | 0.22 | 77 | 1018.6 |
| 20260830230332 | 84 | 51 | 1.0 | 5.0 | 0.00 | 0.22 | 0.22 | 77 | 1019.6 |
| 20260830230009 | 84 | 56 | 1.0 | 4.0 | 0.00 | 0.22 | 0.22 | 77 | 1018.7 |
| 20260830225503 | 84 | 61 | 0.0 | 7.0 | 0.00 | 0.22 | 0.22 | 77 | 1018.7 |
| 20260830225057 | 84 | 76 | 1.0 | 7.0 | 0.00 | 0.22 | 0.22 | 77 | 1018.7 |
| 20260830224818 | 84 | 90 | 2.0 | 7.0 | 0.00 | 0.22 | 0.22 | 76 | 1019.6 |
| 20260830224556 | 84 | 136 | 1.0 | 4.0 | 0.00 | 0.22 | 0.22 | 76 | 1018.9 |
| 20260830224051 | 84 | 106 | 1.0 | 6.0 | 0.00 | 0.22 | 0.22 | 75 | 1018.9 |
| 20260830223548 | 84 | 84 | 2.0 | 5.0 | 0.00 | 0.22 | 0.22 | 75 | 1018.9 |
| 20260830223326 | 85 | 93 | 1.0 | 4.0 | 0.00 | 0.22 | 0.22 | 76 | 1019.8 |
| 20260830223045 | 84 | 153 | 0.0 | 4.0 | 0.00 | 0.22 | 0.22 | 76 | 1018.9 |
| 20260830222536 | 84 | 120 | 1.0 | 6.0 | 0.00 | 0.22 | 0.22 | 75 | 1018.9 |
| 20260830222033 | 85 | 167 | 2.0 | 6.0 | 0.00 | 0.22 | 0.22 | 74 | 1018.8 |
| 20260830221831 | 85 | 103 | 3.0 | 6.0 | 0.00 | 0.22 | 0.22 | 73 | 1019.5 |
| 20260830221534 | 85 | 119 | 2.0 | 4.0 | 0.00 | 0.22 | 0.22 | 73 | 1018.7 |
| 20260830221024 | 85 | 77 | 2.0 | 4.0 | 0.00 | 0.22 | 0.22 | 72 | 1018.7 |
| 20260830220521 | 86 | 87 | 1.0 | 4.0 | 0.00 | 0.22 | 0.22 | 70 | 1018.6 |
| 20260830220319 | 86 | 110 | 2.0 | 4.0 | 0.00 | 0.22 | 0.22 | 70 | 1019.4 |
| 20260830220020 | 86 | 61 | 2.0 | 4.0 | 0.00 | 0.22 | 0.22 | 70 | 1018.6 |
| 20260830215516 | 86 | 109 | 1.0 | 4.0 | 0.00 | 0.22 | 0.22 | 70 | 1018.6 |
| 20260830215014 | 87 | 136 | 1.0 | 4.0 | 0.00 | 0.22 | 0.22 | 69 | 1018.6 |
| 20260830214824 | 87 | 110 | 2.0 | 4.0 | 0.00 | 0.22 | 0.22 | 68 | 1019.5 |
| 20260830214509 | 87 | 110 | 1.0 | 4.0 | 0.00 | 0.22 | 0.22 | 69 | 1018.7 |
| 20260830214008 | 87 | 96 | 1.0 | 4.0 | 0.00 | 0.22 | 0.22 | 69 | 1018.7 |
| 20260830213505 | 87 | 191 | 1.0 | 5.0 | 0.00 | 0.22 | 0.22 | 70 | 1018.7 |
| 20260830213331 | 87 | 105 | 1.0 | 5.0 | 0.00 | 0.22 | 0.22 | 68 | 1019.5 |
| 20260830213058 | 87 | 101 | 1.0 | 5.0 | 0.00 | 0.22 | 0.22 | 69 | 1018.6 |
| 20260830212553 | 87 | 104 | 1.0 | 4.0 | 0.00 | 0.22 | 0.22 | 69 | 1018.7 |
| 20260830212051 | 87 | 143 | 0.0 | 3.0 | 0.00 | 0.22 | 0.22 | 70 | 1018.7 |
| 20260830211815 | 87 | 116 | 2.0 | 3.0 | 0.00 | 0.22 | 0.22 | 68 | 1019.6 |
| 20260830211554 | 87 | 123 | 1.0 | 4.0 | 0.00 | 0.22 | 0.22 | 69 | 1018.8 |
| 20260830211043 | 87 | 121 | 1.0 | 4.0 | 0.00 | 0.22 | 0.22 | 68 | 1018.9 |
| 20260830210537 | 87 | 117 | 1.0 | 6.0 | 0.00 | 0.22 | 0.22 | 66 | 1019.0 |
| 20260830210342 | 88 | 133 | 1.0 | 6.0 | 0.00 | 0.22 | 0.22 | 67 | 1019.8 |
| 20260830210012 | 87 | 141 | 3.0 | 6.0 | 0.00 | 0.22 | 0.22 | 66 | 1018.9 |
| 20260830205508 | 88 | 132 | 1.0 | 6.0 | 0.00 | 0.22 | 0.22 | 67 | 1018.8 |
| 20260830205005 | 88 | 66 | 3.0 | 6.0 | 0.00 | 0.22 | 0.22 | 65 | 1018.9 |
| 20260830204827 | 88 | 96 | 2.0 | 6.0 | 0.00 | 0.22 | 0.22 | 67 | 1019.8 |
| 20260830204559 | 88 | 195 | 3.0 | 7.0 | 0.00 | 0.22 | 0.22 | 65 | 1019.0 |
| 20260830204501 | 88 | 119 | 3.0 | 7.0 | 0.00 | 0.22 | 0.22 | 67 | 1019.1 |
| 20260830204058 | 87 | 162 | 3.0 | 7.0 | 0.00 | 0.22 | 0.22 | 67 | 1019.0 |
| 20260830203556 | 86 | 133 | 1.0 | 9.0 | 0.00 | 0.22 | 0.22 | 69 | 1019.1 |
| 20260830203314 | 87 | 136 | 5.0 | 10.0 | 0.00 | 0.22 | 0.22 | 67 | 1019.8 |
| 20260830203052 | 86 | 94 | 1.0 | 10.0 | 0.00 | 0.22 | 0.22 | 71 | 1019.2 |
| 20260830202547 | 86 | 105 | 5.0 | 10.0 | 0.00 | 0.22 | 0.22 | 69 | 1019.1 |
| 20260830202042 | 86 | 140 | 4.0 | 15.0 | 0.00 | 0.22 | 0.22 | 70 | 1019.2 |
| 20260830201819 | 86 | 138 | 5.0 | 15.0 | 0.00 | 0.22 | 0.22 | 71 | 1020.0 |
| 20260830201541 | 86 | 86 | 6.0 | 15.0 | 0.00 | 0.22 | 0.22 | 71 | 1019.4 |
| 20260830201042 | 85 | 155 | 4.0 | 11.0 | 0.00 | 0.22 | 0.22 | 72 | 1019.4 |
| 20260830200531 | 85 | 98 | 5.0 | 13.0 | 0.00 | 0.22 | 0.22 | 72 | 1019.5 |
| 20260830200327 | 86 | 126 | 6.0 | 14.0 | 0.00 | 0.22 | 0.22 | 73 | 1020.3 |
| 20260830200032 | 86 | 144 | 5.0 | 14.0 | 0.00 | 0.22 | 0.22 | 73 | 1019.4 |
| 20260830195523 | 87 | 130 | 5.0 | 14.0 | 0.00 | 0.22 | 0.22 | 70 | 1019.2 |
| 20260830195021 | 88 | 118 | 6.0 | 10.0 | 0.00 | 0.22 | 0.22 | 68 | 1019.1 |
| 20260830194817 | 89 | 101 | 5.0 | 10.0 | 0.00 | 0.22 | 0.22 | 68 | 1019.9 |
| 20260830194517 | 88 | 88 | 3.0 | 8.0 | 0.00 | 0.22 | 0.22 | 68 | 1019.1 |
| 20260830194013 | 88 | 51 | 4.0 | 8.0 | 0.00 | 0.22 | 0.22 | 64 | 1019.2 |
| 20260830193510 | 87 | 44 | 2.0 | 8.0 | 0.00 | 0.22 | 0.22 | 68 | 1019.3 |
| 20260830193324 | 87 | 144 | 2.0 | 8.0 | 0.00 | 0.22 | 0.22 | 67 | 1020.1 |
| 20260830193009 | 86 | 113 | 2.0 | 10.0 | 0.00 | 0.22 | 0.22 | 69 | 1019.3 |
| 20260830192505 | 86 | 117 | 3.0 | 10.0 | 0.00 | 0.22 | 0.22 | 66 | 1019.4 |
| 20260830192059 | 87 | 11 | 2.0 | 9.0 | 0.00 | 0.22 | 0.22 | 69 | 1019.5 |
| 20260830192001 | 87 | 66 | 1.0 | 9.0 | 0.00 | 0.22 | 0.22 | 68 | 1019.6 |
| 20260830191829 | 87 | 155 | 3.0 | 9.0 | 0.00 | 0.22 | 0.22 | 69 | 1020.4 |
| 20260830191557 | 86 | 130 | 4.0 | 9.0 | 0.00 | 0.22 | 0.22 | 69 | 1019.5 |
| 20260830191053 | 86 | 98 | 3.0 | 9.0 | 0.00 | 0.22 | 0.22 | 71 | 1019.6 |
| 20260830190549 | 86 | 114 | 3.0 | 10.0 | 0.00 | 0.22 | 0.22 | 72 | 1019.6 |
| 20260830190314 | 86 | 80 | 3.0 | 10.0 | 0.00 | 0.22 | 0.22 | 74 | 1020.3 |
| 20260830190045 | 86 | 51 | 4.0 | 10.0 | 0.00 | 0.22 | 0.22 | 73 | 1019.6 |
| 20260830185542 | 86 | 57 | 2.0 | 6.0 | 0.00 | 0.22 | 0.22 | 74 | 1019.6 |
| 20260830185039 | 85 | 65 | 1.0 | 6.0 | 0.00 | 0.22 | 0.22 | 76 | 1019.5 |
| 20260830184819 | 85 | 45 | 2.0 | 8.0 | 0.00 | 0.22 | 0.22 | 75 | 1020.3 |
| 20260830184537 | 84 | 139 | 2.0 | 8.0 | 0.00 | 0.22 | 0.22 | 75 | 1019.6 |
| 20260830184030 | 84 | 132 | 2.0 | 8.0 | 0.01 | 0.22 | 0.22 | 77 | 1019.8 |
| 20260830183528 | 83 | 152 | 2.0 | 8.0 | 0.02 | 0.22 | 0.22 | 83 | 1020.0 |
| 20260830183347 | 82 | 125 | 4.0 | 8.0 | 0.03 | 0.22 | 0.22 | 82 | 1020.9 |
| 20260830183010 | 81 | 138 | 1.0 | 4.0 | 0.06 | 0.22 | 0.22 | 87 | 1020.0 |
| 20260830182559 | 80 | 5 | 2.0 | 4.0 | 0.10 | 0.22 | 0.22 | 87 | 1020.0 |
| 20260830182501 | 80 | 44 | 2.0 | 4.0 | 0.14 | 0.22 | 0.22 | 86 | 1020.0 |
| 20260830182051 | 80 | 45 | 1.0 | 4.0 | 0.22 | 0.22 | 0.22 | 87 | 1020.1 |
| 20260830181848 | 80 | 66 | 1.0 | 4.0 | 0.22 | 0.22 | 0.22 | 88 | 1021.0 |
| 20260830181530 | 79 | 44 | 2.0 | 4.0 | 0.22 | 0.22 | 0.22 | 88 | 1020.2 |
| 20260830181023 | 79 | 78 | 1.0 | 3.0 | 0.22 | 0.22 | 0.22 | 89 | 1020.2 |
| 20260830180524 | 79 | 75 | 0.0 | 3.0 | 0.22 | 0.22 | 0.22 | 90 | 1020.2 |
| 20260830180333 | 80 | 113 | 1.0 | 3.0 | 0.22 | 0.22 | 0.22 | 91 | 1021.0 |
| 20260830180054 | 79 | 123 | 1.0 | 3.0 | 0.22 | 0.22 | 0.22 | 90 | 1020.3 |
| 20260830175550 | 78 | 115 | 0.0 | 2.0 | 0.22 | 0.22 | 0.22 | 91 | 1020.5 |
| 20260830175049 | 78 | 63 | 0.0 | 3.0 | 0.22 | 0.22 | 0.22 | 90 | 1020.7 |
| 20260830174818 | 78 | 83 | 1.0 | 3.0 | 0.22 | 0.22 | 0.22 | 90 | 1021.5 |
| 20260830174550 | 77 | 121 | 0.0 | 4.0 | 0.22 | 0.22 | 0.22 | 90 | 1020.8 |
| 20260830174040 | 77 | 103 | 2.0 | 8.0 | 0.22 | 0.22 | 0.22 | 88 | 1020.9 |
| 20260830173536 | 77 | 49 | 1.0 | 11.0 | 0.20 | 0.20 | 0.20 | 86 | 1021.0 |
| 20260830173345 | 78 | 50 | 3.0 | 11.0 | 0.19 | 0.19 | 0.19 | 85 | 1021.9 |
| 20260830173014 | 78 | 86 | 2.0 | 18.0 | 0.15 | 0.15 | 0.16 | 83 | 1021.2 |
| 20260830172517 | 80 | 159 | 8.0 | 18.0 | 0.07 | 0.07 | 0.10 | 77 | 1021.3 |
| 20260830172015 | 83 | 70 | 4.0 | 15.0 | 0.00 | 0.00 | 0.00 | 74 | 1021.3 |
| 20260830171828 | 84 | 19 | 4.0 | 15.0 | 0.00 | 0.00 | 0.00 | 72 | 1022.1 |
| 20260830171515 | 85 | 127 | 7.0 | 15.0 | 0.00 | 0.00 | 0.00 | 71 | 1021.3 |
| 20260830171016 | 86 | 155 | 4.0 | 8.0 | 0.00 | 0.00 | 0.00 | 68 | 1021.2 |
| 20260830170520 | 86 | 104 | 2.0 | 9.0 | 0.00 | 0.00 | 0.00 | 68 | 1021.1 |
| 20260830170316 | 87 | 74 | 3.0 | 10.0 | 0.00 | 0.00 | 0.00 | 67 | 1022.0 |
| 20260830170022 | 86 | 65 | 2.0 | 10.0 | 0.00 | 0.00 | 0.00 | 69 | 1021.1 |
| 20260830165521 | 87 | 59 | 2.0 | 5.0 | 0.00 | 0.00 | 0.00 | 68 | 1021.2 |
| 20260830165016 | 86 | 10 | 2.0 | 7.0 | 0.00 | 0.00 | 0.00 | 69 | 1021.2 |
| 20260830164820 | 86 | 17 | 3.0 | 7.0 | 0.00 | 0.00 | 0.00 | 70 | 1022.0 |
| 20260830164517 | 86 | 32 | 3.0 | 7.0 | 0.00 | 0.00 | 0.00 | 69 | 1021.2 |
| 20260830164015 | 86 | 83 | 3.0 | 7.0 | 0.00 | 0.00 | 0.00 | 70 | 1021.2 |
| 20260830163515 | 85 | 18 | 3.0 | 6.0 | 0.00 | 0.00 | 0.00 | 70 | 1021.3 |
| 20260830163327 | 86 | 35 | 4.0 | 6.0 | 0.00 | 0.00 | 0.00 | 70 | 1022.3 |
| 20260830163021 | 85 | 26 | 3.0 | 10.0 | 0.00 | 0.00 | 0.00 | 71 | 1021.4 |
| 20260830162514 | 85 | 146 | 2.0 | 10.0 | 0.00 | 0.00 | 0.00 | 72 | 1021.4 |
| 20260830162018 | 86 | 39 | 3.0 | 10.0 | 0.00 | 0.00 | 0.00 | 71 | 1021.5 |
| 20260830161815 | 86 | 29 | 3.0 | 10.0 | 0.00 | 0.00 | 0.00 | 71 | 1022.5 |
| 20260830161521 | 85 | 136 | 2.0 | 10.0 | 0.00 | 0.00 | 0.00 | 73 | 1021.7 |
| 20260830161019 | 85 | 117 | 4.0 | 12.0 | 0.00 | 0.00 | 0.00 | 72 | 1021.8 |
| 20260830160521 | 86 | 44 | 5.0 | 12.0 | 0.00 | 0.00 | 0.00 | 70 | 1021.8 |
| 20260830160320 | 87 | 92 | 5.0 | 12.0 | 0.00 | 0.00 | 0.00 | 70 | 1022.7 |
| 20260830160017 | 86 | 132 | 4.0 | 10.0 | 0.00 | 0.00 | 0.00 | 71 | 1021.8 |
| 20260830155516 | 85 | 111 | 4.0 | 10.0 | 0.00 | 0.00 | 0.00 | 74 | 1021.9 |
| 20260830155011 | 85 | 150 | 5.0 | 10.0 | 0.00 | 0.00 | 0.00 | 76 | 1021.8 |
| 20260830154820 | 85 | 113 | 7.0 | 10.0 | 0.00 | 0.00 | 0.00 | 74 | 1022.8 |
| 20260830154516 | 84 | 149 | 3.0 | 9.0 | 0.00 | 0.00 | 0.00 | 75 | 1021.9 |
| 20260830154007 | 84 | 40 | 2.0 | 9.0 | 0.00 | 0.00 | 0.00 | 75 | 1021.8 |
| 20260830153505 | 84 | 119 | 4.0 | 9.0 | 0.00 | 0.00 | 0.00 | 77 | 1021.8 |
| 20260830153338 | 84 | 118 | 3.0 | 9.0 | 0.00 | 0.00 | 0.00 | 77 | 1022.7 |
| 20260830153039 | 83 | 132 | 4.0 | 9.0 | 0.00 | 0.00 | 0.00 | 78 | 1021.8 |
| 20260830152540 | 83 | 64 | 2.0 | 7.0 | 0.00 | 0.00 | 0.00 | 77 | 1021.8 |
| 20260830152042 | 82 | 121 | 2.0 | 7.0 | 0.00 | 0.00 | 0.00 | 81 | 1021.8 |
| 20260830151821 | 82 | 120 | 3.0 | 6.0 | 0.00 | 0.00 | 0.00 | 81 | 1022.6 |
| 20260830151541 | 82 | 51 | 1.0 | 6.0 | 0.00 | 0.00 | 0.00 | 82 | 1021.8 |
| 20260830151039 | 81 | 36 | 2.0 | 8.0 | 0.00 | 0.00 | 0.00 | 83 | 1021.8 |
| 20260830150541 | 81 | 28 | 2.0 | 8.0 | 0.00 | 0.00 | 0.00 | 83 | 1021.8 |
| 20260830150325 | 81 | 15 | 3.0 | 8.0 | 0.00 | 0.00 | 0.00 | 83 | 1022.7 |
| 20260830150049 | 81 | 29 | 3.0 | 8.0 | 0.00 | 0.00 | 0.00 | 83 | 1021.8 |
| 20260830145545 | 81 | 67 | 2.0 | 8.0 | 0.00 | 0.00 | 0.00 | 83 | 1021.7 |
| 20260830145044 | 80 | 164 | 2.0 | 8.0 | 0.00 | 0.00 | 0.00 | 86 | 1021.9 |
| 20260830144815 | 80 | 35 | 3.0 | 8.0 | 0.00 | 0.00 | 0.00 | 87 | 1022.8 |
| 20260830144546 | 79 | 134 | 2.0 | 5.0 | 0.00 | 0.00 | 0.00 | 88 | 1021.9 |
| 20260830144048 | 78 | 43 | 3.0 | 8.0 | 0.00 | 0.00 | 0.00 | 88 | 1021.9 |
| 20260830143552 | 78 | 129 | 2.0 | 8.0 | 0.00 | 0.00 | 0.00 | 90 | 1021.9 |
| 20260830143323 | 78 | 13 | 3.0 | 9.0 | 0.00 | 0.00 | 0.00 | 91 | 1022.7 |
| 20260830143044 | 77 | 92 | 2.0 | 9.0 | 0.00 | 0.00 | 0.00 | 91 | 1021.9 |
| 20260830142542 | 77 | 69 | 3.0 | 7.0 | 0.00 | 0.00 | 0.00 | 92 | 1021.9 |
| 20260830142046 | 77 | 104 | 2.0 | 7.0 | 0.00 | 0.00 | 0.00 | 92 | 1022.0 |
| 20260830141826 | 77 | 105 | 2.0 | 7.0 | 0.00 | 0.00 | 0.00 | 92 | 1022.8 |
| 20260830141547 | 77 | 137 | 2.0 | 7.0 | 0.00 | 0.00 | 0.00 | 92 | 1021.9 |
| 20260830141050 | 76 | 136 | 3.0 | 7.0 | 0.00 | 0.00 | 0.00 | 92 | 1021.9 |
| 20260830140551 | 76 | 123 | 3.0 | 7.0 | 0.00 | 0.00 | 0.00 | 92 | 1021.9 |
| 20260830140332 | 76 | 162 | 2.0 | 6.0 | 0.00 | 0.00 | 0.00 | 92 | 1022.7 |
| 20260830140053 | 76 | 113 | 2.0 | 6.0 | 0.00 | 0.00 | 0.00 | 92 | 1021.9 |
| 20260830135600 | 76 | 98 | 1.0 | 7.0 | 0.00 | 0.00 | 0.00 | 92 | 1021.9 |
| 20260830135503 | 76 | 82 | 1.0 | 7.0 | 0.00 | 0.00 | 0.00 | 92 | 1021.9 |
| 20260830135059 | 75 | 55 | 2.0 | 8.0 | 0.00 | 0.00 | 0.00 | 92 | 1021.8 |
| 20260830134815 | 76 | 38 | 2.0 | 8.0 | 0.00 | 0.00 | 0.00 | 92 | 1022.7 |
| 20260830134555 | 75 | 70 | 2.0 | 8.0 | 0.00 | 0.00 | 0.00 | 92 | 1021.8 |
| 20260830134052 | 75 | 42 | 1.0 | 4.0 | 0.00 | 0.00 | 0.00 | 92 | 1021.8 |
| 20260830133552 | 75 | 51 | 1.0 | 4.0 | 0.00 | 0.00 | 0.00 | 92 | 1021.6 |
| 20260830133318 | 76 | 35 | 2.0 | 5.0 | 0.00 | 0.00 | 0.00 | 92 | 1022.5 |
| 20260830133054 | 75 | 40 | 1.0 | 5.0 | 0.00 | 0.00 | 0.00 | 92 | 1021.7 |
| 20260830132544 | 75 | 120 | 2.0 | 6.0 | 0.00 | 0.00 | 0.00 | 92 | 1021.6 |
| 20260830132042 | 75 | 53 | 1.0 | 4.0 | 0.00 | 0.00 | 0.00 | 92 | 1021.5 |